This is the latest recevied weather packets stored in our database for station/object N3WMC. If no packets are shown the sender has not sent any weather packets the latest 10 day(s).
| Time | Temp. | Humidity | Pressure | Rain* | Wind** | Luminosity | Snow |
|---|---|---|---|---|---|---|---|
| 1788043166 | 26.67° C | 56% | 1022.7 hPa | 0 mm | - | 48 W/m² | - |
| 1788042861 | 26.67° C | 48% | 1022.3 hPa | 0 mm | - | 75 W/m² | - |
| 1788042560 | 26.67° C | 47% | 1022.3 hPa | 0 mm | - | 82 W/m² | - |
| 1788042255 | 26.11° C | 48% | 1022.4 hPa | 0 mm | - | 93 W/m² | - |
| 1788041950 | 26.11° C | 49% | 1022.4 hPa | 0 mm | - | 95 W/m² | - |
| 1788041645 | 26.67° C | 49% | 1022.4 hPa | 0 mm | - | 81 W/m² | - |
| 1788041340 | 26.67° C | 46% | 1022.4 hPa | 0 mm | - | 64 W/m² | - |
| 1788041039 | 27.22° C | 46% | 1022.3 hPa | 0 mm | - | 55 W/m² | - |
| 1788040738 | 27.78° C | 44% | 1022.3 hPa | 0 mm | - | 113 W/m² | - |
| 1788040427 | 27.22° C | 45% | 1022.4 hPa | 0 mm | - | 137 W/m² | - |
| 1788040123 | 27.78° C | 45% | 1022.4 hPa | 0 mm | - | 149 W/m² | - |
| 1788039817 | 27.78° C | 44% | 1022.5 hPa | 0 mm | - | 142 W/m² | - |
| 1788039517 | 27.78° C | 45% | 1022.4 hPa | 0 mm | - | 139 W/m² | - |
| 1788039213 | 27.78° C | 43% | 1022.6 hPa | 0 mm | - | 125 W/m² | - |
| 1788038908 | 27.78° C | 44% | 1022.7 hPa | 0 mm | - | 160 W/m² | - |
| 1788038603 | 27.22° C | 43% | 1022.3 hPa | 0 mm | - | 169 W/m² | - |
| 1788038302 | 27.22° C | 44% | 1022.3 hPa | 0 mm | - | 196 W/m² | - |
| 1788037992 | 27.78° C | 41% | 1022.4 hPa | 0 mm | - | 141 W/m² | - |
| 1788037687 | 27.78° C | 41% | 1022.5 hPa | 0 mm | - | 212 W/m² | - |
| 1788037382 | 27.78° C | 42% | 1022.8 hPa | 0 mm | - | 218 W/m² | - |
| 1788037081 | 27.78° C | 43% | 1022.7 hPa | 0 mm | - | 232 W/m² | - |
| 1788036776 | 27.78° C | 41% | 1022.7 hPa | 0 mm | - | 252 W/m² | - |
| 1788036473 | 27.78° C | 41% | 1022.8 hPa | 0 mm | - | 263 W/m² | - |
| 1788036168 | 27.78° C | 41% | 1022.7 hPa | 0 mm | - | 262 W/m² | - |
| 1788035868 | 28.33° C | 40% | 1022.9 hPa | 0 mm | - | 257 W/m² | - |
* Rain latest hour (hover to see other rain measurements)
** Current wind speed in m/s (hover to see current wind gust speed)